Regional Weather Roundup
Issued by NWS Cleveland, OH

Home | Current Version | Previous Version | Graphics & Text | Print | Product List | Glossary On
Versions: 1 2 3 4 5 6 7 8 9 10 11 12 13 14 15 16 17 18 19 20 21 22 23 24 25 26 27 28 29 30 31 32 33 34 35 36 37 38 39 40 41 42 43 44 45 46 47 48 49 50
000
ASUS41 KCLE 242110
RWRCLE
OHIO REGIONAL WEATHER ROUNDUP
NATIONAL WEATHER SERVICE WILMINGTON, OH
500 PM EDT FRI MAR 24 2017

NOTE: "FAIR" INDICATES FEW OR NO CLOUDS BELOW 12,000 FEET WITH NO
SIGNIFICANT WEATHER AND/OR OBSTRUCTIONS TO VISIBILITY.

OHZ001>008-015>018-024>027-034-035-043-044-242200-
   NORTHWEST OHIO

CITY           SKY/WX    TMP DP  RH WIND       PRES   REMARKS
DEFIANCE       FAIR      74  53  48 SW21G31   29.97S
FINDLAY        FAIR      76  53  44 SW22G36   30.00S
TOLEDO EXPRESS FAIR      76  55  48 SW21G29   29.95F
TOLEDO EXEC    FAIR      76  55  48 SW23G35   29.96F
LIMA           FAIR      74  54  49 SW26G37   30.03S
$$

OHZ009>014-019>023-028>033-038-089-242200-
   NORTHEAST OHIO

CITY           SKY/WX    TMP DP  RH WIND       PRES   REMARKS
CLE-HOPKINS    FAIR      73  50  44 SW22G33   30.02F
CLE-LAKEFRONT  FAIR      74  51  44 SW24G35   29.98S
CUY CO. ARPT   SUNNY     75  54  46 W23G35    30.00S
LORAIN-ELYRIA  FAIR      71  52  50 SW21G30   30.01F
ASHTABULA      FAIR      72  50  45 SW18      29.99F
AKRON-CANTON   FAIR      72  51  47 SW17G25   30.05F
WOOSTER        FAIR      71  52  50 SW18G25   30.05S
MANSFIELD      FAIR      72  53  51 SW24G30   30.05S
YOUNGSTOWN     PTSUNNY   71  50  47 SW21G30   30.03S
$$

OHZ042-051>053-060>062-070>072-077>081-242200-
  SOUTHWEST OHIO

CITY           SKY/WX    TMP DP  RH WIND       PRES   REMARKS
CINC-COVINGTON CLOUDY    73  53  49 S18G28    30.11F
CINC-LUNKEN    PTSUNNY   74  55  51 SW17G29   30.11F
HAMILTON       CLOUDY    74  54  49 S14G21    30.11F
DAYTON         PTSUNNY   72  52  49 SW22G28   30.08F
WRIGHT-PAT AFB CLOUDY    73  52  46 SW21      30.08F
DAYTON GENERAL PTSUNNY   73  53  49 S20       30.09F
WILMINGTON     CLOUDY    70  54  56 SW17G23   30.11F
$$

OHZ036-037-039>041-045>050-054>059-063>069-073>076-082>088-242200-
  CENTRAL AND SOUTHEAST OHIO

CITY           SKY/WX    TMP DP  RH WIND       PRES   REMARKS
COLUMBUS       FAIR      75  53  46 SW22G28   30.09F
OSU AIRPORT    FAIR      75  54  47 SW17G31   30.08S
BOLTON FIELD   SUNNY     73  55  53 SW24G31   30.09F
RICKENBACK AFB FAIR      74  54  49 SW21G32   30.09F
NEWARK         FAIR      73  53  49 SW20G28   30.09F
MARION         FAIR      74  53  48 SW23G36   30.05S
LANCASTER      FAIR      76  53  44 SW21G30   30.11F
ZANESVILLE     FAIR      75  51  43 SW15G26   30.09F
NEW PHILLY     FAIR      73  52  47 SW16G28   30.08F
$$




USA.gov is the U.S. government's official web portal to all federal, state and local government web resources and services.